Nederland, TX

10:55 PM CST on February 08, 2016 (GMT -0600)
Southeast Texas Regional

Weather History for KBPT - April, 2014

Change the Weather History Date:

Saturday, April 12, 2014

  Actual Average Record
Temperature  
Mean Temperature 73 °F 68 °F  
Max Temperature 80 °F 77 °F 89 °F (1943)
Min Temperature 65 °F 58 °F 39 °F (1951)
Degree Days  
Heating Degree Days 0 2  
Month to date heating degree days 9 26  
Since 1 July heating degree days 1682 1387  
Cooling Degree Days 8 4  
Month to date cooling degree days 47 42  
Year to date cooling degree days 94 123  
Growing Degree Days 22 (Base 50)    
Moisture  
Dew Point 63 °F    
Average Humidity 75    
Maximum Humidity 93    
Minimum Humidity 56    
Precipitation  
Precipitation 0.00 in 0.10 in 5.75 in (2000)
Month to date precipitation 0.05 1.18  
Year to date precipitation 9.06 13.55  
Snow  
Snow 0.00 in 0.00 in 0.00 in ()
Month to date snowfall 0.0 0.0  
Since 1 July snowfall 0.3 T  
Snow Depth 0.00 in    
Sea Level Pressure  
Sea Level Pressure 30.02 in    
Wind  
Wind Speed 14 mph (SSE)    
Max Wind Speed 22 mph    
Max Gust Speed 27 mph    
Visibility 10 miles    
Events      
T = Trace of Precipitation, MM = Missing Value Source: NWS Daily Summary

Daily Weather History Graph

Daily Weather History Graph

Search for Another Location

Airport or City:

Trip Planner

Search our weather history database for the weather conditions in past years. The results will help you decide how hot, cold, wet, or windy it might be!

Date:

Astronomy

Apr. 12, 2014 Rise Set
Actual Time 6:52 AM CDT 7:41 PM CDT
Civil Twilight 6:28 AM CDT 8:05 PM CDT
Nautical Twilight 5:59 AM CDT 8:34 PM CDT
Astronomical Twilight 5:30 AM CDT 9:04 PM CDT
Moon 5:30 PM CDT (4/12) 5:08 AM CDT (4/12)
Length of Visible Light 13h 37m
Length of Day
12h 48m
Waxing Gibbous, 93% of the Moon is Illuminated
Apr 12
Waxing Gibbous
Apr 15
Full
Apr 22
Last Quarter
Apr 29
New
May 6
First Quarter

Hourly Weather History & Observations

Time (CDT) Temp. Dew Point Humidity Pressure Visibility Wind Dir Wind Speed Gust Speed Precip Events Conditions
12:53 AM 66.0 °F 61.0 °F 84% 30.04 in 10.0 mi SSE 10.4 mph - N/A   Clear
1:53 AM 66.0 °F 62.1 °F 87% 30.03 in 10.0 mi SSE 10.4 mph - N/A   Mostly Cloudy
2:53 AM 66.0 °F 62.1 °F 87% 30.03 in 10.0 mi SSE 11.5 mph - N/A   Mostly Cloudy
3:53 AM 66.0 °F 63.0 °F 90% 30.02 in 10.0 mi SSE 10.4 mph - N/A   Mostly Cloudy
4:53 AM 66.9 °F 64.0 °F 90% 30.02 in 10.0 mi SSE 12.7 mph - N/A   Overcast
5:53 AM 66.9 °F 63.0 °F 87% 30.02 in 10.0 mi SSE 11.5 mph - N/A   Partly Cloudy
6:53 AM 66.9 °F 64.0 °F 90% 30.03 in 8.0 mi SSE 10.4 mph - N/A   Mostly Cloudy
7:53 AM 68.0 °F 64.9 °F 90% 30.04 in 7.0 mi SSE 11.5 mph - N/A   Mostly Cloudy
8:53 AM 71.1 °F 64.9 °F 81% 30.05 in 10.0 mi SSE 13.8 mph - N/A   Scattered Clouds
9:53 AM 73.0 °F 64.0 °F 73% 30.08 in 10.0 mi SSE 11.5 mph - N/A   Overcast
10:53 AM 75.0 °F 64.0 °F 69% 30.09 in 10.0 mi SSE 15.0 mph - N/A   Mostly Cloudy
11:53 AM 77.0 °F 64.9 °F 66% 30.09 in 10.0 mi SSE 17.3 mph - N/A   Mostly Cloudy
12:17 PM 77.0 °F 64.0 °F 64% 30.08 in 10.0 mi SSE 17.3 mph 24.2 mph N/A   Mostly Cloudy
12:25 PM 75.9 °F 64.0 °F 67% 30.07 in 10.0 mi SSE 16.1 mph 24.2 mph N/A   Mostly Cloudy
12:33 PM 75.9 °F 64.9 °F 69% 30.07 in 10.0 mi SSE 17.3 mph - N/A   Mostly Cloudy
12:53 PM 75.0 °F 64.0 °F 69% 30.07 in 10.0 mi SE 18.4 mph 25.3 mph N/A   Overcast
1:53 PM 78.1 °F 63.0 °F 60% 30.05 in 10.0 mi South 13.8 mph 26.5 mph N/A   Mostly Cloudy
2:49 PM 77.0 °F 62.6 °F 61% 30.02 in 10.0 mi SSE 16.1 mph 23.0 mph N/A   Mostly Cloudy
2:53 PM 77.0 °F 64.0 °F 64% 30.01 in 10.0 mi SSE 16.1 mph - N/A   Mostly Cloudy
3:14 PM 77.0 °F 62.1 °F 60% 30.02 in 10.0 mi SSE 15.0 mph 20.7 mph N/A   Mostly Cloudy
3:53 PM 78.1 °F 62.1 °F 58% 29.99 in 10.0 mi SSE 16.1 mph - N/A   Scattered Clouds
4:53 PM 77.0 °F 61.0 °F 58% 29.97 in 10.0 mi SE 18.4 mph - N/A   Partly Cloudy
5:53 PM 73.9 °F 60.1 °F 62% 29.96 in 10.0 mi SE 19.6 mph - N/A   Clear
6:53 PM 71.1 °F 59.0 °F 66% 29.96 in 10.0 mi SSE 10.4 mph - N/A   Clear
7:53 PM 69.1 °F 61.0 °F 75% 29.96 in 10.0 mi SE 13.8 mph - N/A   Clear
8:53 PM 68.0 °F 63.0 °F 84% 29.96 in 10.0 mi SE 11.5 mph - N/A   Clear
9:53 PM 68.0 °F 64.0 °F 87% 29.96 in 10.0 mi SE 16.1 mph - N/A   Partly Cloudy
10:36 PM 69.1 °F 64.9 °F 87% 29.96 in 10.0 mi SE 19.6 mph 25.3 mph N/A   Mostly Cloudy
10:53 PM 69.1 °F 64.9 °F 87% 29.97 in 10.0 mi SSE 16.1 mph 25.3 mph N/A   Mostly Cloudy
11:06 PM 69.1 °F 64.9 °F 87% 29.96 in 10.0 mi SSE 13.8 mph - N/A   Mostly Cloudy
11:53 PM 68.0 °F 64.9 °F 90% 29.96 in 10.0 mi SSE 15.0 mph - N/A   Mostly Cloudy